User: anonymous   Login
Location: Writing-on-Stone Provincial Park
(49.0825°N, 111.6163°W)
Time: 13:04:06
(UTC-07:00)
Language:

BREEZE-M DEB (TANK) - Orbit

View from above orbital plane
View from above orbital plane
View from above satellite
View from above satellite

Ground track
Ground track

The orbit data is extracted from the following two-line orbital elements,

1 29649U 06056B   15063.26414753  .00002234  00000-0  64499-3 0  9990
2 29649 049.4705 122.6829 5385520 001.6354 007.9483 04.96053486146117
Epoch (UTC): 04 March 2015 06:20:22
Eccentricity: 0.5385520
inclination: 49.4705°
perigee height: 323 km
apogee height: 15966 km
right ascension of ascending node: 122.6829°
argument of perigee: 1.6354°
revolutions per day: 4.96053486
mean anomaly at epoch: 7.9483°
orbit number at epoch: 14611

The dashed part of the orbit path shows where the satellite is in the earth's shadow,  

DLR